Location: Natterholz
(48.8075°N, 10.9119°E)
Time: 15:12:30
(UTC+00:00)

Daily predictions for brighter satellites

Satellite Brightness Start Highest point End
(mag) Time Altitude Azimuth Time Altitude Azimuth Time Altitude Azimuth
Meteor 1-21 Rocket 4.4 19:50:50 10° S 19:56:41 70° E 20:02:35 10° NNE
USA 267 4.0 19:50:25 10° E 19:56:44 52° NNE 20:03:03 10° WNW
Alouette 2 Rocket 4.0 19:56:58 10° N 20:00:37 46° ENE 20:05:18 10° SSE
Cosmos 2322 Rocket 2.4 19:56:31 10° SSW 20:02:08 79° WNW 20:07:47 10° NNE
SL-08 ROCKET BODY 4.4 19:57:11 10° S 20:03:06 75° E 20:09:10 10° NNE
NOSS 7 (D) 3.8 20:01:23 10° SSW 20:04:10 54° SE 20:06:48 10° NE
Cosmos 2237 4.3 19:59:11 10° SSW 20:04:51 67° ESE 20:10:34 10° NNE
Cosmos 1328 4.2 20:03:27 10° SSE 20:07:13 43° E 20:11:00 10° NNE
SAR-Lupe-2 4.5 20:06:28 10° NE 20:09:42 30° E 20:12:54 10° SSE
Cosmos 1455 2.3 20:07:54 10° NNW 20:11:45 79° W 20:15:36 10° S
Cosmos 1825 Rocket 3.7 20:12:12 10° S 20:16:33 58° E 20:20:57 10° NNE
ATLAS CENTAUR R/B 2.1 20:15:06 10° NNW 20:18:36 37° NE 20:22:00 10° ESE
Cosmos 1703 3.2 20:17:15 10° S 20:21:06 70° E 20:24:59 10° NNE
Cosmos 1812 Rocket 4.5 20:17:46 10° NNW 20:21:57 47° W 20:26:05 10° SSW
COSMOS 2428 3.6 20:17:19 10° SSE 20:22:10 30° ESE 20:27:03 10° NE
Cosmos 1844 3.8 20:18:01 10° NNW 20:23:51 90° WSW 20:29:32 10° SSE
Cosmos 2322 3.9 20:20:25 10° S 20:25:56 52° ESE 20:31:29 10° NE
CZ-4B DEB 4.4 20:28:15 11° SSE 20:31:25 70° ENE 20:34:46 10° N
Cosmos 783 Rocket 4.5 20:26:51 10° SSW 20:32:05 79° ESE 20:37:19 10° NNE
Cosmos 1709 Rocket 4.1 20:26:27 10° S 20:32:41 72° E 20:39:02 10° NNE
NOSS 3-3 (A) 4.4 20:29:05 10° S 20:34:26 39° ESE 20:40:24 10° NE
NOSS 3-3 (C) 4.4 20:29:12 10° S 20:34:33 38° ESE 20:40:30 10° NE
Terra 2.4 20:31:40 12° SE 20:35:53 46° ENE 20:40:27 10° N
Atlas Centaur 2 4.1 20:32:33 10° SSW 20:35:55 15° S 20:38:47 12° SSE
Cosmos 2237 Rocket 3.8 20:33:12 11° SE 20:36:09 16° E 20:39:30 10° ENE
CARTOSAT-1 3.6 20:32:57 11° SSE 20:37:00 70° ENE 20:41:18 10° N
Cosmos 2333 4.3 20:32:09 10° S 20:37:42 61° ESE 20:43:20 10° NE
Cosmos 2219 Rocket 2.6 20:32:53 10° S 20:38:08 43° ESE 20:43:25 10° NE
Cosmos 2360 Rocket 2.5 20:34:22 10° SW 20:40:01 75° WNW 20:45:43 10° NNE
IGS 5A 4.0 20:36:08 10° S 20:40:14 57° W 20:44:21 10° NNW
Cosmos 1538 Rocket 4.5 20:35:58 10° S 20:41:00 43° ESE 20:46:01 10° NE
Cosmos 2333 Rocket 2.3 20:42:21 10° S 20:47:53 55° ESE 20:53:28 10° NE
Cosmos 1315 Rocket 3.0 20:47:00 10° N 20:51:05 63° ENE 20:54:13 16° SSE
ATLAS 2AS CENTAUR R/B 3.7 20:43:55 10° NW 20:51:21 47° NE 20:58:12 10° ESE
Resurs 01 Rocket 3.8 20:48:58 10° SW 20:52:19 21° W 20:55:41 10° NW
Cosmos-2242 3.9 20:50:18 10° NNW 20:54:29 48° W 20:58:41 10° SSW
Cosmos 1818 4.0 20:50:01 10° SW 20:55:25 68° NW 21:00:53 10° NE
Cosmos 773 Rocket 4.0 20:52:37 10° SSW 20:57:56 86° ESE 21:03:15 10° NNE
SL-16 R/B 4.3 20:54:24 10° WSW 20:59:21 30° NW 21:04:21 10° NNE
Cosmos 2221 3.1 20:55:18 10° N 20:59:32 45° ENE 21:02:29 18° SE
ERS-1 Rocket 3.2 20:56:51 12° S 21:01:28 70° WSW 21:06:31 10° NNW
GEOS 3 Rocket 3.8 20:57:29 10° NE 21:02:55 82° NW 21:08:18 10° SW
USA 215 3.2 20:59:43 10° ENE 21:06:14 63° SE 21:12:42 10° SW
Cosmos 1892 3.9 21:07:02 19° SE 21:08:43 27° E 21:11:57 10° NNE
Cosmos 2278 Rocket 2.5 21:03:11 10° NNW 21:08:49 60° ENE 21:13:09 17° SE
ATLAS 5 CENTAUR R/B 2.4 21:07:59 10° WSW 21:12:07 55° NW 21:16:51 10° NE
Meteor 1-11 4.4 21:06:49 10° SSW 21:12:27 76° WNW 21:18:11 10° N
Cosmos 1844 Rocket 4.0 21:08:26 10° NW 21:13:20 32° WSW 21:18:13 10° SSW
Gblst 52 Del rocket 4.3 21:09:22 10° WNW 21:15:04 76° SSW 21:20:33 14° ESE
Cosmos 1943 Rocket 4.5 21:12:32 10° N 21:16:09 17° NE 21:19:45 10° ENE
SPOT 5 3.4 21:13:56 14° S 21:18:13 57° W 21:22:58 10° NNW
SL-16 R/B 4.0 21:18:56 12° ESE 21:20:33 13° E 21:23:08 10° ENE
Lacrosse 5 rocket 3.6 21:17:28 10° WNW 21:20:59 25° N 21:24:21 10° ENE
Nadezhda 3 Rocket 4.4 21:18:33 10° N 21:24:49 53° ENE 21:29:11 20° SE
USA 81 4.4 21:20:05 10° SSW 21:25:19 64° W 21:30:35 10° N
Cosmos 2058 3.4 21:25:00 24° SSE 21:27:08 44° E 21:31:06 10° NNE
Cosmos 2154 Rocket 4.4 21:23:04 19° SSE 21:27:13 48° E 21:33:08 10° NNE
BREEZE M DEB (TANK) 3.6 21:26:22 10° W 21:27:39 16° SW 21:27:39 16° SW
Cosmos 1408 3.7 21:29:06 23° ESE 21:30:12 27° E 21:33:16 10° NNE
Meteor 2-17 Rocket 4.5 21:27:25 18° S 21:31:57 65° E 21:37:57 10° NNE
In-Cosmos 22 Rocket 4.2 21:29:55 20° S 21:33:31 61° E 21:38:45 10° NNE
Cosmos 2074 Rocket 4.0 21:29:15 15° S 21:34:29 82° E 21:40:43 10° N
TSX-5 3.6 21:32:02 10° NNW 21:35:30 85° ENE 21:37:36 27° SE
Cosmos 1076 Rocket 3.7 21:36:08 26° SSE 21:38:20 53° E 21:42:30 10° NNE
Cosmos 1680 Rocket 3.9 21:35:41 22° SSE 21:38:47 46° ESE 21:43:51 10° NNE
USA 267 3.2 21:34:04 16° SE 21:39:32 82° SW 21:46:09 10° WNW
CZ-4C R/B 4.5 21:38:49 10° NW 21:44:30 30° NNE 21:51:03 10° E
Cosmos 2084 4.3 21:41:51 10° NW 21:46:03 41° WSW 21:48:05 25° S
Cosmos 1842 Rocket 4.1 21:42:04 10° NNW 21:46:19 51° W 21:49:02 20° SSW
JB-3 4.3 21:43:44 10° N 21:47:35 79° WNW 21:49:57 22° SSW
COSMOS 2455 4.4 21:43:17 10° NNW 21:48:34 30° NE 21:53:50 10° E
Cosmos 2151 4.1 21:47:18 24° SE 21:48:51 31° E 21:52:38 10° NNE
MTI 4.2 21:48:31 10° N 21:51:34 56° WNW 21:53:11 24° SW
Cosmos 923 Rocket 3.9 21:52:20 18° SSW 21:56:15 81° ESE 22:01:34 10° NNE
Cosmos 2327 Rocket 4.4 21:52:14 20° S 21:56:40 83° E 22:02:49 10° N
ATLAS CENTAUR R/B 2.5 21:54:16 10° WNW 21:57:20 25° WSW 21:58:26 21° SSW
Cosmos 1825 2.8 21:58:09 32° SE 21:59:15 41° E 22:02:51 10° NNE
ALOS 2 3.5 21:58:03 22° ESE 22:00:19 38° ENE 22:04:23 10° N
Cosmos 2369 Rocket 4.2 21:56:33 10° N 22:00:50 22° NE 22:05:06 10° E
Cosmos 1980 3.6 21:56:55 18° SSW 22:01:06 73° ESE 22:06:45 10° NNE
Cosmos 1151 Rocket 4.4 21:57:23 10° N 22:01:10 28° ENE 22:03:13 20° ESE
Cosmos 967 Rocket 4.5 21:56:57 10° SSW 22:03:26 87° SE 22:09:57 10° NE
Cosmos 44 4.2 22:05:15 24° ESE 22:05:35 25° ESE 22:09:10 10° ENE
COSMOS 2428 3.5 22:00:40 10° SW 22:06:11 51° NW 22:11:45 10° NNE
Cosmos 371 Rocket 4.4 22:04:12 10° N 22:08:43 36° ENE 22:11:47 18° ESE
GP-B 4.0 22:05:35 10° NNE 22:09:41 35° E 22:11:23 26° SE
Cosmos 1295 Rocket 4.4 22:06:31 24° S 22:10:22 77° E 22:16:30 10° NNE
NOSS 0 Rocket 4.0 22:07:31 11° SSW 22:13:31 83° WNW 22:19:45 10° NNE
Terra 3.5 22:10:33 13° SW 22:13:51 24° W 22:17:44 10° NW
Cosmos 1624 Rocket 4.0 22:08:58 10° NNW 22:14:15 82° ENE 22:16:57 29° SSE
NOSS 3-4 (A) 3.8 22:07:50 10° NW 22:14:47 78° SW 22:19:47 24° SSE
NOSS 3-4 (C) 3.8 22:07:56 10° NW 22:14:54 79° SW 22:19:55 24° SSE
Cosmos 2237 Rocket 2.2 22:14:58 17° SSW 22:19:23 89° WNW 22:25:08 10° NNE
SL-4 R/B 3.1 22:19:54 14° ENE 22:19:54 14° ENE 22:20:51 10° NNE
Genesis I 3.1 22:18:36 35° SSW 22:20:04 67° SE 22:23:57 10° NE
Cosmos 2344 3.6 22:16:02 16° SSW 22:22:05 63° ESE 22:30:01 10° NE
Cosmos 2219 Rocket 3.6 22:17:01 10° WSW 22:22:10 37° NW 22:27:23 10° NNE
Elektron 1 4.4 22:21:21 21° SW 22:23:29 90° NW 22:29:14 10° NE
DELTA 2 R/B (1) 4.2 22:25:23 10° SW 22:36:22 - ESE 22:30:02 31° S
Thor Agena Rocket 3.6 22:25:06 10° NNE 22:30:14 77° WNW 22:33:18 24° SSW
Cosmos 2333 Rocket 3.9 22:27:24 10° WSW 22:32:28 32° NW 22:37:35 10° NNE
Cosmos 1515 Rocket 4.4 22:37:19 10° N 22:41:27 41° ENE 22:43:15 27° SE
BREEZE-M DEB (TANK) 1.6 22:38:14 10° WNW 22:41:21 53° WSW 22:41:21 53° WSW
Cosmos 1371 Rocket 4.4 22:36:48 10° NNW 22:41:56 54° WSW 22:44:15 31° SSW
ATLAS 2AS CENTAUR R/B 3.0 22:35:14 10° NW 22:42:39 60° WSW 22:46:25 28° S
EO 1 Del DPAF 3.8 22:39:40 10° N 22:43:21 52° WNW 22:45:00 28° SW
Cosmos 1766 Rocket 3.5 22:44:24 39° S 22:45:59 78° E 22:50:24 10° NNE
Gbstr 26 Del rocket 4.1 22:49:28 24° ESE 22:49:28 24° ESE 22:51:53 10° E
Okean 3 Rocket 3.5 22:47:02 36° SSW 22:48:49 86° WNW 22:53:16 10° N
Cosmos 1328 Rocket 3.5 22:44:34 10° N 22:48:55 79° E 22:50:25 40° SSE
Aureole 2 Rocket 2.0 22:46:14 10° NNW 22:48:59 61° WSW 22:48:59 61° WSW
USA 215 3.8 22:42:50 10° NE 22:49:16 60° NNW 22:55:41 10° W
Cosmos 1606 2.7 22:47:22 10° NNW 22:51:16 76° W 22:52:19 46° S
Cosmos 2278 Rocket 3.6 22:47:55 10° NW 22:52:30 26° WSW 22:54:59 19° SW
Cosmos 2218 Rocket 4.0 22:50:54 29° S 22:54:18 75° E 23:00:36 10° NNE
Cosmos 2297 3.7 22:48:39 10° NNW 22:54:24 78° WSW 22:57:11 32° SSE
Cosmos 2228 Rocket 4.3 22:52:52 10° N 22:57:06 35° ENE 22:59:19 22° ESE
Cosmos 1420 Rocket 4.0 22:52:55 10° NNW 22:58:13 82° WSW 23:00:36 34° SSE
Cosmos 2366 rocket 4.0 22:56:35 30° S 22:59:59 78° E 23:06:21 10° NNE
Lacrosse 5 rocket 2.6 22:57:09 10° NW 23:00:58 38° NNE 23:04:34 10° E
Cosmos 1943 Rocket 2.5 22:55:25 10° NNW 23:01:06 64° ENE 23:04:40 23° SE
Cosmos 1633 3.4 23:01:11 34° ESE 23:01:47 37° E 23:05:09 10° NNE
SL-16 R/B 2.1 23:00:46 30° SSW 23:03:42 79° ESE 23:09:25 10° NNE
Cosmos 2056 Rocket 4.3 23:00:45 10° NW 23:05:48 41° WSW 23:07:58 28° SSW
Cosmos 1959 Rocket 4.4 23:06:20 30° S 23:09:36 88° W 23:15:51 10° N
YAOGAN 11 4.1 23:09:09 37° SSE 23:10:50 75° ENE 23:15:15 10° N
Cosmos 1743 Rocket 4.0 23:12:36 35° SE 23:13:55 47° E 23:18:07 10° NNE
Cosmos 332 Rocket 3.7 23:14:46 10° NNW 23:19:35 80° WSW 23:21:28 37° SSE
Cosmos 1048 Rocket 4.4 23:19:33 33° SSE 23:21:33 50° ESE 23:26:37 10° NNE
USA 267 4.2 23:21:24 25° SSW 23:23:10 28° SW 23:28:40 10° WNW
Meteor 2-3 Rocket 3.7 23:21:02 32° SSW 23:23:48 86° WNW 23:29:33 10° N
Helios 1A 3.1 23:24:53 42° SSW 23:26:05 62° WSW 23:30:14 10° NNW
Cosmos 405 2.9 23:24:54 10° N 23:28:28 86° ENE 23:29:08 57° SSE
Cosmos 1452 Rocket 3.6 23:27:46 10° NNW 23:32:59 63° WSW 23:35:06 35° S
CZ-4C R/B 3.2 23:27:16 10° NW 23:34:16 69° NE 23:42:24 10° SE
Meteor 2-6 Rocket 4.3 23:29:28 10° N 23:34:58 65° ENE 23:37:54 27° SSE
Cosmos 1825 4.5 23:32:56 12° WSW 23:34:59 17° WNW 23:37:36 10° NNW
COSMOS 2455 2.8 23:29:03 10° NW 23:35:05 75° WSW 23:38:24 28° SSE
PSLV R/B 3.8 23:31:05 10° NNE 23:35:15 56° E 23:36:34 38° SSE
Cosmos 1340 3.3 23:34:23 35° WSW 23:35:31 47° WNW 23:39:11 10° N
ALOS 2 4.0 23:35:27 22° WSW 23:36:45 25° W 23:40:25 10° NW
Cosmos 1110 Rocket 4.3 23:31:41 10° NNW 23:36:57 65° ENE 23:40:16 23° SE
Cosmos 1933 4.5 23:33:37 10° NNW 23:37:12 31° W 23:38:13 27° WSW
Cosmos 1408 Rocket 4.0 23:35:56 32° SW 23:37:38 53° WNW 23:41:59 10° N
SL-16 R/B 4.1 23:32:57 10° ESE 23:38:18 31° ENE 23:43:40 10° N
Cosmos 1151 Rocket 4.2 23:34:54 10° NNW 23:38:43 31° W 23:40:03 26° WSW
Cosmos 1603 4.3 23:36:25 30° SSE 23:38:44 45° ESE 23:44:09 10° NE
Cosmos 1727 Rocket 4.2 23:38:45 10° NNW 23:44:53 61° W 23:48:04 29° SSW
APEX 4.0 23:42:40 10° NW 23:44:21 25° W 23:44:21 25° W
Resurs 1-4 Rocket 4.1 23:41:50 10° NE 23:45:31 19° E 23:48:44 11° SE
Cosmos 2369 Rocket 2.1 23:40:00 10° NNW 23:45:38 88° WSW 23:48:49 27° SSE
Cosmos 1500 Rocket 3.5 23:44:49 40° SSW 23:46:23 84° W 23:50:48 10° N
Cosmos 44 3.8 23:43:37 19° WSW 23:46:30 49° NW 23:50:52 10° NNE
Cosmos 371 Rocket 4.3 23:44:45 10° NW 23:49:04 33° WSW 23:50:25 28° SW
SeaSat 1 4.0 23:45:37 10° NE 23:49:33 23° ESE 23:51:20 19° SE
ISS -1.5 23:51:00 15° ESE 23:51:00 15° ESE 23:52:01 10° E
Cosmos 1000 Rocket 4.5 23:45:27 10° N 23:51:50 90° WNW 23:55:26 28° S
Helios 1B rocket 2.4 23:49:54 10° NNE 23:54:03 73° ESE 23:55:23 41° S
